Location: Holmbach
(49.5093°N, 8.8411°E)
Time: 05:42:56
(UTC+00:00)

SL-4 R/B - Pass Details

Date: 17 June 2025
Orbit: 393 x 546 km, 51.6° (Epoch: 12 July)

Event Time Altitude Azimuth Distance (km) Brightness Sun altitude
Rises 22:24:03 0° 256° (WSW) 2,706 5.6 -15.8°
Reaches altitude 10° 22:26:18 10° 258° (WSW) 1,808 4.7 -15.9°
Maximum altitude 22:30:26 79° 345° (NNW) 548 2.0 -16.1°
Drops below altitude 10° 22:34:27 10° 73° (ENE) 1,756 4.6 -16.2°
Sets 22:36:37 0° 75° (ENE) 2,622 5.5 -16.3°
